Monterey, CA

4:27 AM PDT on August 30, 2016 (GMT -0700)
Monterey Peninsula

Weather History for KMRY - December, 2012

Change the Weather History Date:

Saturday, December 1, 2012

  Actual Average Record
Temperature  
Mean Temperature 60 °F 52 °F  
Max Temperature 67 °F 62 °F 71 °F (2013)
Min Temperature 52 °F 43 °F 35 °F (2004)
Degree Days  
Heating Degree Days 5    
Month to date heating degree days 5  
Since 1 July heating degree days 936  
Cooling Degree Days 0    
Month to date cooling degree days 0  
Year to date cooling degree days 36  
Growing Degree Days 10 (Base 50)    
Moisture  
Dew Point 55 °F    
Average Humidity 82    
Maximum Humidity 100    
Minimum Humidity 63    
Precipitation  
Precipitation 0.08 in - 0.51 in (2005)
Month to date precipitation 0.08  
Year to date precipitation 11.91  
Since 1 July precipitation 4.26  
Sea Level Pressure  
Sea Level Pressure 30.06 in    
Wind  
Wind Speed 4 mph (SE)    
Max Wind Speed 16 mph    
Max Gust Speed 23 mph    
Visibility 9 miles    
Events      
T = Trace of Precipitation, MM = Missing Value Source: NWS Daily Summary

Daily Weather History Graph

Daily Weather History Graph

Search for Another Location

Airport or City:

Trip Planner

Search our weather history database for the weather conditions in past years. The results will help you decide how hot, cold, wet, or windy it might be!

Date:

Astronomy

Dec. 01, 2012 Rise Set
Actual Time 7:01 AM PST 4:51 PM PST
Civil Twilight 6:33 AM PST 5:20 PM PST
Nautical Twilight 6:01 AM PST 5:52 PM PST
Astronomical Twilight 5:29 AM PST 6:23 PM PST
Moon 7:45 PM PST (12/1) 9:18 AM PST (12/1)
Length of Visible Light 10h 47m
Length of Day
9h 50m
Waning Gibbous, 91% of the Moon is Illuminated
Dec 1
Waning Gibbous
Dec 6
Last Quarter
Dec 13
New
Dec 19
First Quarter
Dec 28
Full

Hourly Weather History & Observations

Time (PST) Temp. Dew Point Humidity Pressure Visibility Wind Dir Wind Speed Gust Speed Precip Events Conditions
4:54 AM 55.9 °F 53.1 °F 90% 30.06 in 10.0 mi East 3.5 mph - N/A   Mostly Cloudy
5:54 AM 55.0 °F 53.1 °F 93% 30.04 in 10.0 mi NE 3.5 mph - N/A   Clear
6:54 AM 55.9 °F 54.0 °F 93% 30.06 in 10.0 mi Calm Calm - N/A   Overcast
7:54 AM 57.0 °F 55.0 °F 93% 30.07 in 10.0 mi SW 3.5 mph - N/A   Overcast
8:06 AM 57.2 °F 55.4 °F 94% 30.04 in 4.0 mi Calm Calm - 0.01 in   Overcast
8:13 AM 57.2 °F 55.4 °F 94% 30.05 in 1.8 mi Calm Calm - 0.03 in   Overcast
8:31 AM 57.2 °F 55.4 °F 94% 30.05 in 2.0 mi East 5.8 mph - 0.08 in   Overcast
8:35 AM 57.2 °F 55.4 °F 94% 30.05 in 4.0 mi East 4.6 mph - 0.08 in   Overcast
8:45 AM 57.2 °F 55.4 °F 94% 30.05 in 10.0 mi Calm Calm - 0.08 in   Overcast
8:54 AM 57.9 °F 57.0 °F 97% 30.10 in 9.0 mi ENE 3.5 mph - 0.08 in   Overcast
9:21 AM 59.0 °F 57.2 °F 94% 30.07 in 9.0 mi Calm Calm - N/A   Overcast
9:54 AM 60.1 °F 57.9 °F 93% 30.12 in 8.0 mi Calm Calm - N/A   Mostly Cloudy
10:54 AM 64.0 °F 57.9 °F 80% 30.13 in 10.0 mi Calm Calm - N/A   Overcast
11:54 AM 64.9 °F 57.0 °F 75% 30.11 in 10.0 mi Variable 6.9 mph - N/A   Mostly Cloudy
12:54 PM 64.9 °F 55.9 °F 73% 30.09 in 10.0 mi SSW 8.1 mph - N/A   Partly Cloudy
1:54 PM 64.9 °F 55.0 °F 70% 30.07 in 10.0 mi South 10.4 mph - N/A   Partly Cloudy
2:54 PM 66.0 °F 55.0 °F 68% 30.07 in 10.0 mi South 6.9 mph - N/A   Scattered Clouds
3:54 PM 64.9 °F 54.0 °F 68% 30.06 in 10.0 mi South 4.6 mph - N/A   Overcast
4:54 PM 64.0 °F 52.0 °F 65% 30.06 in 10.0 mi South 3.5 mph - N/A   Overcast
5:54 PM 63.0 °F 52.0 °F 67% 30.05 in 10.0 mi SE 4.6 mph - N/A   Overcast
6:54 PM 63.0 °F 53.1 °F 70% 30.02 in 10.0 mi ESE 3.5 mph - N/A   Overcast
7:54 PM 62.1 °F 54.0 °F 75% 30.03 in 10.0 mi Variable 3.5 mph - N/A   Overcast
8:54 PM 61.0 °F 55.0 °F 81% 30.02 in 10.0 mi SSE 6.9 mph - N/A   Mostly Cloudy
9:54 PM 63.0 °F 54.0 °F 72% 30.01 in 10.0 mi Calm Calm - N/A   Overcast
10:54 PM 64.9 °F 55.0 °F 70% 30.01 in 10.0 mi Variable 6.9 mph - N/A   Overcast
11:54 PM 64.9 °F 55.9 °F 73% 30.00 in 10.0 mi SSE 12.7 mph 23.0 mph N/A   Mostly Cloudy